FW9211 Weather Reports


time (UTC)temp
C
wind
direction
speed
KPH
gust
KPH
rain 1hr
cm
rain 24hr
cm
rain mn
cm
humidity
%
barometer
mb
20260510083048 15 0 0.0 3.2 0.00 0.00 0.00 66 1025.8
20260510081554 15 0 0.0 0.0 0.00 0.00 0.00 66 1025.6
20260510080054 16 0 0.0 1.6 0.00 0.00 0.00 62 1025.7
20260510074605 17 0 0.0 1.6 0.00 0.00 0.00 57 1025.5
20260510073051 18 0 0.0 0.0 0.00 0.00 0.00 54 1025.3
20260510071556 20 0 0.0 0.0 0.00 0.00 0.00 50 1025.3
20260510070109 22 0 0.0 0.0 0.00 0.00 0.00 46 1025.1
20260510064558 25 0 0.0 1.6 0.00 0.00 0.00 36 1024.9
20260510063059 26 0 0.0 3.2 0.00 0.00 0.00 35 1024.6
20260510061555 25 0 0.0 6.4 0.00 0.00 0.00 36 1024.5
20260510060054 28 0 0.0 4.8 0.00 0.00 0.00 31 1024.3
20260510054600 28 0 0.0 8.0 0.00 0.00 0.00 31 1024.3
20260510053052 28 214 1.6 9.7 0.00 0.00 0.00 30 1024.4
20260510051551 28 0 0.0 4.8 0.00 0.00 0.00 30 1024.4
20260510050054 27 0 0.0 6.4 0.00 0.00 0.00 30 1024.6
20260510044602 26 216 3.2 6.4 0.00 0.00 0.00 34 1024.8
20260510043054 26 231 3.2 9.7 0.00 0.00 0.00 34 1024.9
20260510041557 26 200 0.0 16.1 0.00 0.00 0.00 36 1025.1
20260510040053 25 229 3.2 12.9 0.00 0.00 0.00 35 1025.1
20260510034552 25 249 3.2 11.3 0.00 0.00 0.00 36 1025.3
20260510033118 25 245 1.6 11.3 0.00 0.00 0.00 38 1025.2
20260510031614 25 248 0.0 8.0 0.00 0.00 0.00 37 1025.1
20260510030052 25 249 6.4 12.9 0.00 0.00 0.00 39 1025.2
20260510024551 24 285 3.2 9.7 0.00 0.00 0.00 39 1025.5
20260510023053 25 269 3.2 11.3 0.00 0.00 0.00 38 1025.6
20260510021552 24 0 4.8 9.7 0.00 0.00 0.00 39 1025.7
20260510020053 23 0 0.0 11.3 0.00 0.00 0.00 43 1025.9
20260510014605 23 277 4.8 19.3 0.00 0.00 0.00 41 1026.3
20260510013052 23 299 3.2 8.0 0.00 0.00 0.00 45 1026.5
20260510011559 22 0 0.0 4.8 0.00 0.00 0.00 48 1026.7
20260510004558 20 137 3.2 8.0 0.00 0.00 0.00 53 1027.1
20260510003101 19 124 1.6 11.3 0.00 0.00 0.00 55 1027.4
20260510001551 18 0 1.6 9.7 0.00 0.00 0.00 59 1027.3
20260510000055 17 0 1.6 6.4 0.00 0.00 0.00 60 1027.2
20260509234605 16 139 1.6 8.0 0.00 0.00 0.00 60 1027.2
20260509233050 15 123 3.2 9.7 0.00 0.00 0.00 63 1027.1
20260509231552 15 129 3.2 9.7 0.00 0.00 0.00 65 1027.0
20260509230055 14 84 1.6 9.7 0.00 0.00 0.00 66 1026.9
20260509224553 13 122 0.0 6.4 0.00 0.00 0.00 66 1027.0
20260509223058 13 114 1.6 6.4 0.00 0.00 0.00 68 1027.0
20260509221553 12 119 0.0 8.0 0.00 0.00 0.00 68 1027.0
20260509214554 11 0 0.0 6.4 0.00 0.00 0.00 72 1026.7
20260509213055 10 75 0.0 3.2 0.00 0.00 0.00 75 1026.5
20260509211554 10 77 0.0 4.8 0.00 0.00 0.00 76 1026.4
20260509210101 9 0 0.0 4.8 0.00 0.00 0.00 77 1026.2
20260509204559 8 74 0.0 6.4 0.00 0.00 0.00 78 1026.0
20260509203058 8 75 0.0 4.8 0.00 0.00 0.00 78 1025.7
20260509201553 8 74 0.0 8.0 0.00 0.00 0.00 78 1025.6
20260509200054 8 50 1.6 8.0 0.00 0.00 0.00 77 1025.3
20260509194556 9 0 0.0 4.8 0.00 0.00 0.00 77 1025.1
20260509193055 9 84 3.2 11.3 0.00 0.00 0.00 77 1024.8
20260509191554 8 0 1.6 8.0 0.00 0.00 0.00 77 1024.7
20260509190057 9 0 0.0 1.6 0.00 0.00 0.00 76 1024.5
20260509184552 10 49 3.2 11.3 0.00 0.00 0.00 74 1024.3
20260509183057 10 89 4.8 12.9 0.00 0.00 0.00 74 1024.2
20260509181602 10 112 4.8 9.7 0.00 0.00 0.00 74 1024.0
20260509180058 10 117 4.8 12.9 0.00 0.00 0.00 73 1023.7
20260509174601 10 82 3.2 14.5 0.00 0.00 0.00 73 1023.7
20260509173112 10 90 8.0 12.9 0.00 0.00 0.00 72 1023.6
20260509171555 10 108 6.4 14.5 0.00 0.00 0.00 71 1023.6
20260509170054 10 81 6.4 16.1 0.00 0.00 0.00 71 1023.5
20260509164551 11 122 4.8 12.9 0.00 0.00 0.00 70 1023.6
20260509163100 11 92 4.8 14.5 0.00 0.00 0.00 70 1023.7
20260509161552 11 96 6.4 16.1 0.00 0.00 0.00 70 1023.7
20260509160059 11 100 3.2 9.7 0.00 0.00 0.00 71 1023.8
20260509154600 10 88 1.6 9.7 0.00 0.00 0.00 72 1023.7
20260509153054 10 72 0.0 9.7 0.00 0.00 0.00 73 1023.8
20260509151553 11 0 1.6 11.3 0.00 0.00 0.00 72 1023.8
20260509150053 11 87 3.2 11.3 0.00 0.00 0.00 71 1023.7
20260509144606 11 110 3.2 12.9 0.00 0.00 0.00 72 1023.8
20260509143055 11 67 3.2 11.3 0.00 0.00 0.00 73 1023.8
20260509141553 11 113 3.2 9.7 0.00 0.00 0.00 72 1023.8
20260509140105 11 74 0.0 8.0 0.00 0.00 0.00 72 1023.8
20260509134553 11 89 3.2 11.3 0.00 0.00 0.00 72 1023.9
20260509133058 11 59 1.6 8.0 0.00 0.00 0.00 74 1024.1
20260509131557 10 86 1.6 9.7 0.00 0.00 0.00 76 1024.0
20260509130059 8 128 0.0 0.0 0.00 0.00 0.00 82 1024.1
20260509124603 9 0 0.0 0.0 0.00 0.00 0.00 81 1023.7
20260509123052 9 0 0.0 0.0 0.00 0.00 0.00 81 1023.7
20260509121601 9 0 0.0 0.0 0.00 0.00 0.00 81 1023.8
20260509120054 9 0 0.0 0.0 0.00 0.00 0.00 81 1023.8
20260509114553 9 0 0.0 0.0 0.00 0.00 0.00 81 1023.8
20260509113056 10 0 0.0 0.0 0.00 0.00 0.00 80 1023.8
20260509111556 10 0 0.0 0.0 0.00 0.00 0.00 80 1023.8
20260509110050 10 0 0.0 0.0 0.00 0.00 0.00 80 1023.8
20260509104549 10 0 0.0 0.0 0.00 0.00 0.00 80 1023.8
20260509103051 10 0 0.0 0.0 0.00 0.00 0.00 79 1023.9
20260509101552 10 0 0.0 0.0 0.00 0.00 0.00 79 1024.0
20260509100055 10 0 0.0 0.0 0.00 0.00 0.00 78 1024.0
20260509094557 10 0 0.0 0.0 0.00 0.00 0.00 76 1024.0
20260509093057 11 0 0.0 0.0 0.00 0.00 0.00 73 1023.8
20260509091554 11 0 0.0 0.0 0.00 0.00 0.00 73 1023.8
20260509090106 11 0 0.0 0.0 0.00 0.00 0.00 73 1023.6
20260509084558 12 0 0.0 0.0 0.00 0.00 0.00 73 1023.5